Flag for Norway Weather past 2 weeks in Indre Arna, Norway

Now
52 °F

Rain showers. Overcast.


Feels Like: 50 °F
Forecast: 46 / 68 °F
Wind: 5 mph from Southwest

Location: Bergen / Florida

Current Time: Aug 2, 2015 at 2:45:18 PM

Latest Report: Aug 2, 2015 at 2:00 PM


Visibility: 19 mi

Pressure: 30.04 "Hg

Humidity: 75%

Dew point: 44 °F

Location of Indre ArnaLocation

Historic Weather in Indre Arna — Graph

°F

Indre Arna temperature yesterday

Maximum temperature yesterday: 60 °F (at 2:00 PM)
Minimum temperature yesterday: 48 °F (at 12:00 AM)
Average temperature yesterday: 53 °F

Past Weeks' High & Low Weather Summary

 TemperatureHumidityPressure
High71 °F (Jul 29, 12:00 PM)89% (Jul 25, 6:00 AM)30.00 "Hg (Jul 25, 6:00 AM)
Low46 °F (Jul 25, 6:00 AM)39% (Jul 29, 3:00 PM)29.41 "Hg (Jul 29, 10:00 AM)
Average56 °F73%29.70 "Hg
* Reported Jul 18 1:00 PM — Aug 2 1:00 PM, Indre Arna, Weather by CustomWeather, © 2015

Note: Actual official high and low records may vary slightly from our data, if they occured in-between our weather recording intervals... More about our weather records

Advertising

Indre Arna weather history for previous 24 hours

 ConditionsComfort  
Time TempWeatherWind HumidityBarometerVisibility
1:00 PM
Sun, Aug 2
58 °FCool.8 mph65%30.00 "HgN/A
12:00 PM57 °FCool.6 mph66%29.99 "HgN/A
11:00 AM56 °FPartly sunny.6 mph66%29.97 "Hg19 mi
10:00 AM54 °FCool.5 mph73%29.96 "HgN/A
9:00 AM54 °FCool.7 mph70%29.93 "HgN/A
8:00 AM51 °FPartly sunny.3 mph80%29.92 "Hg17 mi
7:00 AM49 °FCool.3 mph77%29.94 "HgN/A
6:00 AM52 °FCool.6 mph77%29.91 "HgN/A
5:00 AM50 °FCool.3 mph80%29.91 "HgN/A
4:00 AM51 °FCool.5 mph84%29.90 "HgN/A
3:00 AM51 °FCool.3 mph83%29.90 "HgN/A
2:00 AM52 °FCool.1 mph83%29.88 "HgN/A
1:00 AM52 °FCool.2 mph79%29.89 "HgN/A
12:00 AM53 °FCool.3 mph76%29.89 "HgN/A
10:00 PM
Sat, Aug 1
53 °FCool.3 mph75%29.88 "HgN/A
9:00 PM53 °FCool.5 mph79%29.88 "HgN/A
8:00 PM54 °FOvercast.6 mph78%29.88 "Hg12 mi
6:00 PM58 °FCool.8 mph65%29.87 "HgN/A
5:00 PM55 °FOvercast.6 mph79%29.88 "Hg16 mi
4:00 PM57 °FCool.3 mph72%29.89 "HgN/A
3:00 PM59 °FCool.7 mph61%29.89 "HgN/A
2:00 PM60 °FPartly sunny.5 mph58%29.90 "Hg19 mi
Weather by CustomWeather, © 2015

See weather overviewHow to use our weather pages